Evansville, IN

12:42 AM CDT on May 30, 2017 (GMT -0500)
Evansville Regional

Weather History for KEVV - September, 2013

Change the Weather History Date:

Friday, September 27, 2013

  Actual Average Record
Temperature  
Mean Temperature 68 °F 64 °F  
Max Temperature 82 °F 77 °F 94 °F (1998)
Min Temperature 53 °F 52 °F 34 °F (1942)
Degree Days  
Heating Degree Days 0 4  
Month to date heating degree days 10 33  
Since 1 July heating degree days 10 34  
Cooling Degree Days 3 3  
Month to date cooling degree days 203 159  
Year to date cooling degree days 1395 1358  
Growing Degree Days 18 (Base 50)    
Moisture  
Dew Point 55 °F    
Average Humidity 66    
Maximum Humidity 93    
Minimum Humidity 39    
Precipitation  
Precipitation 0.00 in 0.10 in 1.65 in (1945)
Month to date precipitation 2.25 2.73  
Year to date precipitation 37.58 33.65  
Snow  
Snow 0.00 in 0.00 in 0.00 in (2002)
Month to date snowfall 0.0 0.0  
Since 1 July snowfall 0.0 0.0  
Since 1 September snowfall 0.0 0.0  
Snow Depth 0.00 in    
Sea Level Pressure  
Sea Level Pressure 30.09 in    
Wind  
Wind Speed 4 mph (East)    
Max Wind Speed 12 mph    
Max Gust Speed 16 mph    
Visibility 9 miles    
Events      
T = Trace of Precipitation, MM = Missing Value Source: NWS Daily Summary

Daily Weather History Graph

Daily Weather History Graph

Search for Another Location

Airport or City:

Trip Planner

Search our weather history database for the weather conditions in past years. The results will help you decide how hot, cold, wet, or windy it might be!

Date:

Astronomy

Sep. 27, 2013 Rise Set
Actual Time 6:42 AM CDT 6:38 PM CDT
Civil Twilight 6:16 AM CDT 7:05 PM CDT
Nautical Twilight 5:45 AM CDT 7:35 PM CDT
Astronomical Twilight 5:14 AM CDT 8:06 PM CDT
Moon No Moon Rise 2:12 PM CDT (9/27)
Length of Visible Light 12h 48m
Length of Day
11h 56m
Last Quarter, 45% of the Moon is Illuminated
Sep 27
Last Quarter
Oct 4
New
Oct 11
First Quarter
Oct 18
Full
Oct 26
Last Quarter

Hourly Weather History & Observations

Time (CDT) Temp. Heat Index Dew Point Humidity Pressure Visibility Wind Dir Wind Speed Gust Speed Precip Events Conditions
12:54 AM 59.0 °F - 54.0 °F 83% 30.05 in 10.0 mi ENE 3.5 mph - N/A   Clear
1:54 AM 55.9 °F - 53.1 °F 90% 30.06 in 10.0 mi NE 4.6 mph - N/A   Clear
2:54 AM 55.9 °F - 53.1 °F 90% 30.06 in 9.0 mi Calm Calm - N/A   Clear
3:54 AM 55.0 °F - 53.1 °F 93% 30.07 in 8.0 mi Calm Calm - N/A   Clear
4:54 AM 55.0 °F - 52.0 °F 89% 30.09 in 8.0 mi Calm Calm - N/A   Clear
5:54 AM 54.0 °F - 52.0 °F 93% 30.11 in 5.0 mi Calm Calm - N/A   Clear
6:54 AM 55.0 °F - 52.0 °F 89% 30.13 in 5.0 mi Calm Calm - N/A   Clear
7:54 AM 60.1 °F - 55.9 °F 86% 30.14 in 6.0 mi Calm Calm - N/A   Clear
8:54 AM 64.9 °F - 57.0 °F 75% 30.15 in 10.0 mi NE 3.5 mph - N/A   Clear
9:54 AM 71.1 °F - 60.1 °F 68% 30.15 in 10.0 mi NE 4.6 mph - N/A   Clear
10:54 AM 75.9 °F - 59.0 °F 56% 30.14 in 10.0 mi NE 4.6 mph - N/A   Clear
11:54 AM 77.0 °F - 55.0 °F 47% 30.13 in 10.0 mi East 8.1 mph - N/A   Clear
12:54 PM 80.1 °F 80.0 °F 54.0 °F 40% 30.11 in 10.0 mi ENE 9.2 mph - N/A   Clear
1:54 PM 81.0 °F 80.7 °F 55.0 °F 41% 30.09 in 10.0 mi East 9.2 mph - N/A   Clear
2:54 PM 81.0 °F 80.5 °F 54.0 °F 39% 30.07 in 10.0 mi Variable 4.6 mph - N/A   Clear
3:54 PM 81.0 °F 80.7 °F 55.0 °F 41% 30.05 in 10.0 mi ESE 8.1 mph - N/A   Clear
4:54 PM 81.0 °F 80.7 °F 55.0 °F 41% 30.05 in 10.0 mi ESE 6.9 mph - N/A   Clear
5:54 PM 79.0 °F - 54.0 °F 42% 30.06 in 10.0 mi ESE 5.8 mph - N/A   Clear
6:54 PM 73.9 °F - 55.0 °F 52% 30.06 in 10.0 mi East 3.5 mph - N/A   Clear
7:54 PM 72.0 °F - 55.9 °F 57% 30.07 in 10.0 mi East 3.5 mph - N/A   Clear
8:54 PM 68.0 °F - 57.0 °F 68% 30.09 in 10.0 mi Calm Calm - N/A   Clear
9:54 PM 64.0 °F - 57.0 °F 78% 30.09 in 10.0 mi ENE 3.5 mph - N/A   Clear
10:54 PM 62.1 °F - 57.0 °F 84% 30.08 in 10.0 mi ENE 3.5 mph - N/A   Clear
11:54 PM 61.0 °F - 57.0 °F 87% 30.09 in 10.0 mi Calm Calm - N/A   Clear